| time (UTC) | temp F | wind direction | speed MPH | gust MPH | rain 1hr in | rain 24hr in | rain mn in | humidity % | barometer mb |
| 20260902130109 | 45 | 155 | 3.0 | 5.0 | 0.00 | 0.00 | 0.00 | 93 | 1012.7 |
| 20260902124534 | 45 | 146 | 3.0 | 6.0 | 0.00 | 0.00 | 0.00 | 92 | 1012.8 |
| 20260902123034 | 45 | 311 | 0.0 | 5.0 | 0.00 | 0.00 | 0.00 | 91 | 1012.8 |
| 20260902121609 | 46 | 63 | 0.0 | 3.0 | 0.00 | 0.00 | 0.00 | 90 | 1012.9 |
| 20260902120136 | 47 | 242 | 0.0 | 4.0 | 0.00 | 0.00 | 0.00 | 88 | 1013.0 |
| 20260902114532 | 48 | 1 | 1.0 | 4.0 | 0.00 | 0.00 | 0.00 | 86 | 1012.9 |
| 20260902113034 | 50 | 112 | 2.0 | 4.0 | 0.00 | 0.00 | 0.00 | 82 | 1012.9 |
| 20260902111536 | 52 | 215 | 2.0 | 7.0 | 0.00 | 0.00 | 0.00 | 79 | 1012.9 |
| 20260902110142 | 54 | 318 | 4.0 | 9.0 | 0.00 | 0.00 | 0.00 | 76 | 1012.9 |
| 20260902104531 | 55 | 318 | 5.0 | 12.0 | 0.00 | 0.00 | 0.00 | 75 | 1013.0 |
| 20260902101537 | 54 | 296 | 7.0 | 17.0 | 0.00 | 0.00 | 0.00 | 76 | 1013.3 |
| 20260902100037 | 55 | 252 | 4.0 | 10.0 | 0.00 | 0.00 | 0.00 | 74 | 1013.2 |
| 20260902094536 | 56 | 289 | 5.0 | 14.0 | 0.00 | 0.00 | 0.00 | 73 | 1013.5 |
| 20260902093034 | 56 | 299 | 6.0 | 14.0 | 0.00 | 0.00 | 0.00 | 73 | 1013.5 |
| 20260902091536 | 56 | 306 | 5.0 | 13.0 | 0.00 | 0.00 | 0.00 | 73 | 1013.6 |
| 20260902090032 | 56 | 298 | 8.0 | 15.0 | 0.00 | 0.00 | 0.00 | 73 | 1013.5 |
| 20260902084536 | 56 | 311 | 8.0 | 15.0 | 0.00 | 0.00 | 0.00 | 73 | 1013.4 |
| 20260902083036 | 56 | 308 | 8.0 | 18.0 | 0.00 | 0.00 | 0.00 | 73 | 1013.6 |
| 20260902081536 | 55 | 304 | 6.0 | 15.0 | 0.00 | 0.00 | 0.00 | 75 | 1013.7 |
| 20260902073036 | 56 | 302 | 7.0 | 18.0 | 0.00 | 0.00 | 0.00 | 76 | 1013.8 |
| 20260902071531 | 56 | 321 | 9.0 | 20.0 | 0.00 | 0.00 | 0.00 | 75 | 1013.8 |
| 20260902070108 | 56 | 315 | 7.0 | 15.0 | 0.00 | 0.00 | 0.00 | 74 | 1014.1 |
| 20260902064703 | 57 | 308 | 8.0 | 19.0 | 0.00 | 0.00 | 0.00 | 73 | 1014.3 |
| 20260902063035 | 58 | 303 | 8.0 | 15.0 | 0.00 | 0.00 | 0.00 | 72 | 1014.6 |
| 20260902060036 | 58 | 294 | 9.0 | 20.0 | 0.00 | 0.00 | 0.00 | 70 | 1014.6 |
| 20260902054535 | 58 | 294 | 8.0 | 15.0 | 0.00 | 0.00 | 0.00 | 70 | 1014.8 |
| 20260902053036 | 58 | 296 | 7.0 | 14.0 | 0.00 | 0.00 | 0.00 | 69 | 1014.8 |
| 20260902051534 | 59 | 288 | 10.0 | 19.0 | 0.00 | 0.00 | 0.00 | 69 | 1014.6 |
| 20260902050034 | 58 | 290 | 9.0 | 18.0 | 0.00 | 0.00 | 0.00 | 70 | 1014.5 |
| 20260902044534 | 59 | 288 | 9.0 | 18.0 | 0.00 | 0.00 | 0.00 | 70 | 1014.4 |
| 20260902043035 | 59 | 296 | 9.0 | 19.0 | 0.00 | 0.00 | 0.00 | 69 | 1014.2 |
| 20260902041536 | 59 | 299 | 8.0 | 19.0 | 0.00 | 0.00 | 0.00 | 68 | 1014.2 |
| 20260902040034 | 59 | 292 | 9.0 | 24.0 | 0.00 | 0.00 | 0.00 | 69 | 1013.9 |
| 20260902034535 | 59 | 293 | 8.0 | 17.0 | 0.00 | 0.00 | 0.00 | 69 | 1013.7 |
| 20260902033143 | 59 | 294 | 11.0 | 22.0 | 0.00 | 0.00 | 0.00 | 69 | 1013.4 |
| 20260902031537 | 59 | 292 | 10.0 | 22.0 | 0.00 | 0.00 | 0.00 | 68 | 1013.3 |
| 20260902024536 | 59 | 296 | 7.0 | 17.0 | 0.00 | 0.00 | 0.00 | 68 | 1013.7 |
| 20260902023035 | 59 | 293 | 6.0 | 15.0 | 0.00 | 0.00 | 0.00 | 67 | 1013.6 |
| 20260902021537 | 60 | 296 | 9.0 | 23.0 | 0.00 | 0.00 | 0.00 | 67 | 1013.6 |
| 20260902020036 | 61 | 301 | 7.0 | 16.0 | 0.00 | 0.00 | 0.00 | 64 | 1013.4 |
| 20260902013037 | 62 | 297 | 10.0 | 20.0 | 0.00 | 0.00 | 0.00 | 62 | 1013.3 |
| 20260902011535 | 63 | 290 | 10.0 | 22.0 | 0.00 | 0.00 | 0.00 | 61 | 1013.2 |
| 20260902010034 | 65 | 296 | 10.0 | 22.0 | 0.00 | 0.00 | 0.00 | 60 | 1013.0 |
| 20260902004535 | 65 | 285 | 8.0 | 17.0 | 0.00 | 0.00 | 0.00 | 61 | 1012.9 |
| 20260902003030 | 65 | 293 | 8.0 | 18.0 | 0.00 | 0.00 | 0.00 | 61 | 1012.7 |
| 20260902001552 | 65 | 293 | 7.0 | 20.0 | 0.00 | 0.00 | 0.00 | 62 | 1012.7 |
| 20260902000111 | 65 | 296 | 8.0 | 15.0 | 0.00 | 0.00 | 0.00 | 63 | 1012.7 |
| 20260901233033 | 65 | 332 | 7.0 | 17.0 | 0.00 | 0.00 | 0.00 | 62 | 1012.7 |
| 20260901231532 | 68 | 338 | 8.0 | 16.0 | 0.00 | 0.00 | 0.00 | 59 | 1012.5 |
| 20260901224649 | 70 | 322 | 9.0 | 19.0 | 0.00 | 0.00 | 0.00 | 56 | 1012.3 |
| 20260901223111 | 70 | 312 | 9.0 | 20.0 | 0.00 | 0.00 | 0.00 | 56 | 1012.2 |
| 20260901221535 | 72 | 308 | 9.0 | 19.0 | 0.00 | 0.00 | 0.00 | 55 | 1012.1 |
| 20260901220035 | 72 | 311 | 8.0 | 16.0 | 0.00 | 0.00 | 0.00 | 57 | 1011.8 |
| 20260901214536 | 70 | 348 | 8.0 | 17.0 | 0.00 | 0.00 | 0.00 | 57 | 1011.8 |
| 20260901213035 | 70 | 346 | 8.0 | 15.0 | 0.00 | 0.00 | 0.00 | 57 | 1012.0 |
| 20260901211608 | 70 | 336 | 7.0 | 16.0 | 0.00 | 0.00 | 0.00 | 57 | 1012.2 |
| 20260901210034 | 70 | 337 | 7.0 | 16.0 | 0.00 | 0.00 | 0.00 | 58 | 1012.3 |
| 20260901203031 | 69 | 332 | 8.0 | 18.0 | 0.00 | 0.00 | 0.00 | 58 | 1012.5 |
| 20260901201534 | 69 | 344 | 8.0 | 15.0 | 0.00 | 0.00 | 0.00 | 58 | 1012.7 |
| 20260901200152 | 69 | 351 | 5.0 | 17.0 | 0.00 | 0.00 | 0.00 | 59 | 1012.9 |
| 20260901193035 | 68 | 337 | 6.0 | 14.0 | 0.00 | 0.00 | 0.00 | 59 | 1013.3 |
| 20260901184535 | 67 | 24 | 4.0 | 13.0 | 0.00 | 0.00 | 0.00 | 60 | 1013.7 |
| 20260901183034 | 67 | 25 | 4.0 | 12.0 | 0.00 | 0.00 | 0.00 | 62 | 1013.8 |
| 20260901180034 | 65 | 26 | 5.0 | 13.0 | 0.00 | 0.00 | 0.00 | 64 | 1014.0 |
| 20260901174531 | 64 | 359 | 4.0 | 8.0 | 0.00 | 0.00 | 0.00 | 68 | 1014.0 |
| 20260901173034 | 62 | 30 | 2.0 | 8.0 | 0.00 | 0.00 | 0.00 | 71 | 1014.0 |
| 20260901171533 | 62 | 343 | 3.0 | 7.0 | 0.00 | 0.00 | 0.00 | 71 | 1014.1 |
| 20260901170033 | 60 | 350 | 2.0 | 6.0 | 0.00 | 0.00 | 0.00 | 74 | 1014.0 |
| 20260901164532 | 59 | 16 | 1.0 | 4.0 | 0.00 | 0.00 | 0.00 | 77 | 1014.0 |
| 20260901163033 | 58 | 350 | 2.0 | 6.0 | 0.00 | 0.00 | 0.00 | 81 | 1014.0 |
| 20260901161531 | 55 | 47 | 0.0 | 3.0 | 0.00 | 0.00 | 0.00 | 85 | 1013.9 |
| 20260901160031 | 54 | 67 | 0.0 | 2.0 | 0.00 | 0.00 | 0.00 | 87 | 1013.8 |
| 20260901154535 | 52 | 111 | 0.0 | 3.0 | 0.00 | 0.00 | 0.00 | 87 | 1013.8 |
| 20260901153036 | 51 | 111 | 1.0 | 4.0 | 0.00 | 0.00 | 0.00 | 87 | 1013.8 |
| 20260901151610 | 48 | 125 | 4.0 | 8.0 | 0.00 | 0.00 | 0.00 | 86 | 1013.6 |
| 20260901143035 | 48 | 139 | 3.0 | 5.0 | 0.00 | 0.00 | 0.00 | 86 | 1013.5 |
| 20260901140032 | 48 | 152 | 4.0 | 6.0 | 0.00 | 0.00 | 0.00 | 84 | 1013.3 |
| 20260901134530 | 49 | 150 | 4.0 | 6.0 | 0.00 | 0.00 | 0.00 | 82 | 1013.1 |
| 20260901131533 | 47 | 158 | 5.0 | 8.0 | 0.00 | 0.00 | 0.00 | 84 | 1012.9 |